Weather History for LTBA - February, 2014

Change the Weather History Date:

Friday, February 21, 2014

  Actual Average Record
Temperature  
Mean Temperature 54 °F -  
Max Temperature 62 °F 50 °F 62 °F (2014)
Min Temperature 46 °F 38 °F 26 °F (2004)
Degree Days  
Heating Degree Days 11    
Growing Degree Days 4 (Base 50)    
Moisture  
Dew Point 47 °F    
Average Humidity 85    
Maximum Humidity 100    
Minimum Humidity 59    
Precipitation  
Precipitation 0.00 in - - ()
Sea Level Pressure  
Sea Level Pressure 30.01 in    
Wind  
Wind Speed 5 mph ()    
Max Wind Speed 20 mph    
Max Gust Speed 15 mph    
Visibility 4.2 miles    
Events      
Averages and records for this station are not official NWS values.
T = Trace of Precipitation, MM = Missing Value Source: Averaged Metar Reports

Daily Weather History Graph

Daily Weather History Graph

Search for Another Location

Airport or City:

Trip Planner

Search our weather history database for the weather conditions in past years. The results will help you decide how hot, cold, wet, or windy it might be!

Date:

Astronomy

Feb. 21, 2014 Rise Set
Actual Time 6:51 AM EET 5:46 PM EET
Civil Twilight 6:23 AM EET 6:14 PM EET
Nautical Twilight 5:51 AM EET 6:46 PM EET
Astronomical Twilight 5:19 AM EET 7:17 PM EET
Moon No Moon Rise 9:58 AM EET (2/21)
Length of Visible Light 11h 50m
Length of Day
10h 54m
Waning Gibbous, 64% of the Moon is Illuminated
Feb 21
Waning Gibbous
Feb 22
Last Quarter
Mar 1
New
Mar 8
First Quarter
Mar 16
Full

Hourly Weather History & Observations

Time (EET) Temp. Windchill Dew Point Humidity Pressure Visibility Wind Dir Wind Speed Gust Speed Precip Events Conditions
12:20 AM 50.0 °F - 48.2 °F 94% 30.06 in - Calm Calm - N/A   Clear
12:50 AM 51.8 °F - 48.2 °F 88% 30.06 in - Calm Calm - N/A   Clear
1:20 AM 51.8 °F - 48.2 °F 88% 30.06 in - Calm Calm - N/A   Clear
1:50 AM 51.8 °F - 48.2 °F 88% 30.06 in - Variable 1.2 mph - N/A   Clear
2:00 AM 51 °F - 48 °F 87% 30.09 in 6 mi West 1.2 mph - -  
2:20 AM 50.0 °F - 48.2 °F 94% 30.06 in - Calm Calm - N/A   Clear
2:50 AM 50.0 °F - 48.2 °F 94% 30.06 in - Calm Calm - N/A   Clear
3:20 AM 50.0 °F - 48.2 °F 94% 30.06 in - Calm Calm - N/A   Clear
3:50 AM 50.0 °F - 48.2 °F 94% 30.04 in - Calm Calm - N/A   Clear
4:20 AM 50.0 °F - 48.2 °F 94% 30.04 in 5.0 mi Calm Calm - N/A   Unknown
4:50 AM 51.8 °F - 50.0 °F 94% 30.04 in 5.0 mi NE 1.2 mph - N/A   Unknown
5:00 AM 51 °F - 49 °F 92% 30.06 in 5 mi NE 1.2 mph - -   Mist
5:20 AM 50.0 °F - 46.4 °F 87% 30.06 in 5.0 mi Calm Calm - N/A   Unknown
5:50 AM 50.0 °F - 48.2 °F 94% 30.06 in 4.3 mi Calm Calm - N/A   Unknown
6:20 AM 48.2 °F - 46.4 °F 93% 30.06 in - Calm Calm - N/A   Clear
6:50 AM 48.2 °F - 48.2 °F 100% 30.06 in 3.7 mi Calm Calm - N/A   Unknown
7:20 AM 50.0 °F - 48.2 °F 94% 30.06 in - Calm Calm - N/A   Clear
7:50 AM 51.8 °F - 48.2 °F 88% 30.06 in 3.7 mi Calm Calm - N/A   Unknown
8:00 AM 52 °F - 48 °F 83% 30.09 in 4 mi Calm Calm - -   Mist
8:20 AM 53.6 °F - 50.0 °F 88% 30.06 in 3.7 mi Variable 1.2 mph - N/A   Unknown
8:50 AM 53.6 °F - 50.0 °F 88% 30.06 in 3.7 mi Variable 2.3 mph 15.0 mph N/A   Unknown
9:20 AM 53.6 °F - 50.0 °F 88% 30.06 in 3.7 mi Calm Calm - N/A   Unknown
9:50 AM 55.4 °F - 50.0 °F 82% 30.06 in 3.7 mi Calm Calm - N/A   Unknown
10:20 AM 57.2 °F - 51.8 °F 82% 30.06 in 3.7 mi Calm Calm - N/A   Unknown
10:50 AM 59.0 °F - 51.8 °F 77% 30.06 in 3.7 mi Variable 1.2 mph - N/A   Unknown
11:00 AM 60 °F - 50 °F 62% 30.07 in 4 mi NE 1.2 mph - -   Mist
11:20 AM 60.8 °F - 50.0 °F 68% 30.04 in 3.7 mi Variable 4.6 mph - N/A   Unknown
11:50 AM 60.8 °F - 50.0 °F 68% 30.04 in 3.7 mi NNE 6.9 mph - N/A   Unknown
12:20 PM 59.0 °F - 50.0 °F 72% 30.04 in 3.7 mi NW 10.4 mph - N/A   Unknown
12:50 PM 59.0 °F - 50.0 °F 72% 30.01 in 4.3 mi NNW 12.7 mph - N/A   Unknown
1:20 PM 57.2 °F - 48.2 °F 72% 30.01 in 5.0 mi North 12.7 mph - N/A   Unknown
1:50 PM 57.2 °F - 48.2 °F 72% 30.01 in 5.0 mi NNW 13.8 mph - N/A   Unknown
2:00 PM 58 °F - 48 °F 59% 30.02 in 5 mi NNW 13.8 mph - -   Mist
2:20 PM 55.4 °F - 46.4 °F 72% 29.98 in 5.0 mi North 18.4 mph - N/A   Unknown
2:50 PM 51.8 °F - 46.4 °F 82% 29.98 in 5.0 mi North 19.6 mph - N/A   Unknown
3:20 PM 51.8 °F - 46.4 °F 82% 29.98 in 5.0 mi North 19.6 mph - N/A   Unknown
3:50 PM 50.0 °F - 46.4 °F 87% 29.98 in 4.3 mi NNW 17.3 mph - N/A   Unknown
4:20 PM 51.8 °F - 46.4 °F 82% 29.98 in 4.3 mi North 15.0 mph - N/A   Unknown
4:50 PM 50.0 °F - 46.4 °F 87% 29.98 in 3.7 mi North 13.8 mph - N/A   Unknown
5:00 PM 50 °F - 46 °F 80% 29.99 in 4 mi North 13.8 mph - -   Mist
5:20 PM 50.0 °F - 44.6 °F 82% 29.98 in 3.7 mi North 16.1 mph - N/A   Mostly Cloudy
5:50 PM 48.2 °F - 44.6 °F 87% 29.98 in 3.7 mi North 13.8 mph - N/A   Mostly Cloudy
6:20 PM 48.2 °F - 44.6 °F 87% 29.95 in 4.3 mi North 15.0 mph - N/A   Mostly Cloudy
6:50 PM 46.4 °F 39.5 °F 44.6 °F 93% 29.95 in 4.3 mi North 17.3 mph - N/A   Unknown
7:20 PM 48.2 °F - 44.6 °F 87% 29.95 in 4.3 mi North 17.3 mph - N/A   Mostly Cloudy
7:50 PM 48.2 °F - 46.4 °F 93% 29.95 in 3.7 mi North 13.8 mph - N/A   Mostly Cloudy
8:00 PM 49 °F - 45 °F 81% 29.96 in 4 mi North 13.8 mph - -   Mist
8:20 PM 50.0 °F - 44.6 °F 82% 29.95 in 4.3 mi North 12.7 mph - N/A   Mostly Cloudy
8:50 PM 46.4 °F 40.4 °F 44.6 °F 93% 29.95 in 3.7 mi North 13.8 mph - N/A   Mostly Cloudy
9:20 PM 48.2 °F - 46.4 °F 93% 29.95 in 3.7 mi North 12.7 mph - N/A   Mostly Cloudy
9:50 PM 48.2 °F - 46.4 °F 93% 29.95 in 3.7 mi North 13.8 mph - N/A   Mostly Cloudy
10:20 PM 48.2 °F - 46.4 °F 93% 29.92 in 3.7 mi North 16.1 mph - N/A   Mostly Cloudy
10:50 PM 48.2 °F - 44.6 °F 87% 29.92 in 4.3 mi North 11.5 mph - N/A   Mostly Cloudy
11:00 PM 48 °F - 45 °F 84% 29.95 in 4 mi North 11.5 mph - -   Mist
11:20 PM 48.2 °F - 44.6 °F 87% 29.92 in 4.3 mi North 13.8 mph - N/A   Mostly Cloudy
11:50 PM 48.2 °F - 44.6 °F 87% 29.92 in 3.7 mi North 12.7 mph - N/A   Mostly Cloudy